Location: Peebles
(55.6412°N, 3.1714°W)
Time: 23:19:26
(UTC+01:00)

CENTAUR R/B - Pass Details

Date: 24 January 2022
Orbit: 716 x 1471 km, 63.4° (Epoch: 08 May)

Event Time Altitude Azimuth Distance (km) Brightness Sun altitude
Rises 18:38:29 0° 259° (W) 3,595 7.2 -17.5°
Reaches altitude 10° 18:40:54 10° 264° (W) 2,751 6.2 -17.9°
Maximum altitude 18:47:20 55° 342° (NNW) 1,349 3.2 -18.8°
Enters shadow 18:52:14 23° 51° (NE) 2,368 4.0 -19.5°
